Wind_Speed
42 42 41 41 40 40 41 42 43 45 46 47 46 46 46 46 45 44 44 43 42 41 40 38 35 33 32 31 31 31 31 32 31 31 31 30 30 30 28 27 28 30 30 29 30 30 30 29 29 29 29 28 27 26 27 28 29 29 28 28 29 30 30 31 31 32 32 33 34 34 34 33 32 31 30 29 28 27 26 26 26 26 26 27 27 27 28
42 42 42 42 41 41 41 42 43 44 45 46 46 46 46 47 46 45 45 44 43 42 42 40 38 37 35 34 33 33 33 33 32 32 32 31 30 30 30 30 31 32 31 31 32 32 32 32 33 33 32 30 28 28 29 30 30 30 29 29 30 30 30 31 32 32 33 33 33 33 33 33 31 30 29 28 27 26 26 25 26 26 27 27 27 28 28
42 42 42 41 41 41 41 41 42 43 44 45 46 46 46 46 46 46 45 45 44 43 43 42 41 40 39 37 37 35 34 33 33 33 32 31 31 31 31 32 33 32 32 33 34 34 34 35 36 35 33 31 30 31 31 31 31 30 30 30 30 31 31 32 33 33 33 33 33 33 33 32 31 30 29 28 27 26 26 26 26 26 27 27 27 28 28
41 41 41 41 41 41 42 42 42 42 43 44 45 45 45 46 46 46 46 45 45 44 43 43 42 41 40 38 38 37 36 35 34 33 32 32 32 33 33 34 34 33 34 35 35 35 35 35 36 36 34 32 33 34 33 32 31 31 30 30 31 31 32 33 33 33 33 33 33 33 33 32 31 29 28 28 27 27 27 27 27 28 28 28 28 28 29
41 40 40 40 40 41 41 42 42 42 42 43 43 44 45 45 45 45 45 44 43 44 43 42 40 39 38 37 36 35 35 34 33 32 31 32 32 32 32 32 31 32 32 33 33 32 33 34 34 35 36 35 34 34 33 32 31 31 31 31 32 32 33 33 33 33 33 33 32 33 32 31 30 29 28 28 28 28 28 29 29 29 29 29 29 30 30
42 40 40 40 41 41 41 41 41 41 42 43 44 44 45 45 45 45 44 43 43 42 42 41 39 36 35 34 33 32 31 31 30 31 31 31 30 30 30 30 30 30 30 31 31 31 32 34 34 34 36 37 34 33 33 32 32 32 32 32 32 32 32 33 32 32 32 32 32 32 32 31 30 29 29 28 28 29 29 29 29 30 30 30 30 30 30
42 40 40 41 42 42 41 41 41 41 43 44 44 44 44 44 44 44 43 43 42 41 41 41 40 38 35 34 32 30 29 29 29 29 29 29 29 30 29 29 28 29 29 30 31 31 32 33 32 31 33 36 34 33 34 33 33 32 32 32 31 32 32 32 32 32 32 32 32 32 31 30 29 29 28 28 28 29 29 29 29 29 29 30 30 29 29
42 40 39 40 41 41 41 41 41 41 41 41 41 41 41 42 42 42 42 42 42 41 40 40 40 40 39 37 35 34 33 31 30 29 29 29 30 29 28 28 28 29 30 31 32 31 32 33 33 31 31 33 33 33 33 33 33 32 31 31 31 31 32 31 31 31 32 32 32 31 30 29 28 28 28 28 28 29 29 28 29 29 29 29 28 28 27
41 41 39 37 37 38 39 39 40 40 39 39 39 39 40 41 41 41 41 42 42 42 41 39 38 38 40 40 39 38 37 35 32 31 31 31 30 30 29 29 29 30 31 32 31 31 31 33 33 33 33 32 31 32 33 33 32 31 30 30 30 30 30 30 31 31 32 31 30 29 28 28 27 27 27 28 27 27 27 27 27 27 27 27 26 26 27
37 40 40 38 36 36 36 36 37 38 38 39 40 40 40 40 40 40 41 41 41 42 41 39 37 38 39 39 39 39 38 37 36 35 35 33 32 31 31 31 30 30 31 31 30 30 32 33 32 33 34 33 31 31 31 31 30 29 29 29 29 29 29 30 31 31 31 30 28 27 27 26 26 26 26 25 25 24 24 24 25 25 26 26 26 27 28
35 38 40 40 38 36 33 32 34 34 35 37 38 39 39 39 39 39 39 40 40 41 42 40 39 40 39 37 37 38 38 38 38 37 36 35 34 34 33 32 32 31 31 30 30 30 31 32 32 34 34 32 29 29 29 29 28 28 27 27 28 29 29 29 29 29 29 28 27 26 26 25 25 24 24 24 24 24 24 25 25 26 27 27 28 29 30
35 36 38 39 38 36 34 33 34 34 34 35 36 37 36 35 35 35 35 36 36 38 41 41 41 41 40 37 37 40 40 39 38 38 37 37 37 37 35 32 31 32 32 31 32 31 29 31 33 34 31 28 27 27 27 27 26 26 26 26 28 29 28 27 27 27 27 26 25 25 25 24 24 24 24 24 24 25 26 26 27 28 29 30 30 31 31
36 35 35 36 36 36 36 35 35 35 35 36 36 35 33 31 30 30 31 33 34 36 39 41 41 41 40 39 40 42 42 40 39 38 38 37 36 35 32 29 28 29 31 32 33 31 30 30 32 31 27 25 26 26 26 25 25 25 25 27 27 27 26 25 26 26 25 25 24 24 24 24 24 25 25 25 25 26 27 28 29 30 30 31 30 30 29
37 34 33 33 33 33 33 32 33 35 36 36 35 33 32 31 29 28 29 31 33 36 39 41 40 39 40 41 42 43 43 41 39 38 37 36 35 33 30 28 28 29 30 30 30 29 27 26 27 26 25 27 27 26 25 25 25 26 27 27 26 25 24 25 25 25 24 24 24 24 24 24 25 26 25 25 26 27 28 29 30 30 30 29 29 28 28
36 35 34 33 31 29 28 28 30 32 34 35 34 34 33 32 30 29 28 28 31 35 39 42 41 39 38 40 41 41 41 40 39 38 37 36 35 33 31 30 31 31 31 28 27 27 26 26 25 25 26 27 26 26 26 27 27 27 26 25 24 24 24 24 25 24 24 23 24 25 25 25 26 26 26 26 27 29 29 30 29 28 27 27 27 26 27
32 32 31 28 25 24 25 28 30 33 36 37 38 37 36 34 32 31 28 26 27 30 35 39 41 40 40 40 40 40 40 39 39 38 36 35 34 33 32 31 31 31 30 27 25 24 25 25 26 26 25 24 25 27 27 26 26 25 24 23 23 23 24 24 24 24 23 23 24 25 26 26 26 26 26 27 28 29 28 28 26 26 25 25 25 25 26
24 24 22 21 21 22 25 28 30 32 34 36 38 39 38 36 34 32 28 26 25 25 28 32 35 38 39 40 40 40 40 39 38 37 36 34 33 31 30 29 29 30 29 26 23 23 23 23 24 25 26 26 26 26 24 23 23 23 23 22 23 23 24 24 24 24 24 25 25 26 26 26 26 26 27 28 28 27 26 25 24 24 24 24 24 24 24
22 21 21 21 22 22 23 25 27 28 28 29 31 34 35 34 33 32 29 27 25 25 26 27 29 32 33 35 36 36 36 36 36 36 35 34 31 27 26 27 28 29 28 27 25 24 23 22 23 23 24 24 23 23 23 23 23 23 22 21 22 23 24 25 25 25 25 26 27 27 26 26 26 27 27 27 26 24 24 23 23 23 23 23 23 22 21
24 23 23 23 23 23 23 24 25 25 24 23 25 28 30 32 32 32 30 29 28 27 28 28 28 28 28 28 29 30 30 31 32 33 33 31 28 25 24 25 26 27 29 29 28 25 23 22 21 22 22 22 22 22 22 21 21 21 21 22 23 23 24 24 25 26 27 27 27 26 25 25 26 27 26 25 23 22 22 22 21 21 21 22 21 20 20
24 25 25 25 25 25 24 25 25 24 23 23 23 25 27 30 32 32 31 30 29 29 29 29 28 26 26 25 25 25 27 29 30 30 30 28 26 24 24 23 24 26 27 27 26 24 23 23 22 22 23 22 21 21 20 20 20 21 22 22 22 23 23 23 24 25 25 25 24 24 24 25 26 25 23 22 21 21 21 20 20 20 20 20 20 20 20
22 23 24 25 26 26 25 26 27 26 24 23 23 24 26 28 31 32 32 32 31 30 30 30 28 27 26 26 25 26 27 29 29 28 26 25 24 24 24 23 23 23 23 22 22 21 21 21 21 22 21 21 21 21 21 21 22 22 22 22 23 23 23 23 23 23 22 22 22 23 24 25 24 22 21 20 20 20 19 19 19 20 20 20 20 20 21
22 24 25 27 27 27 26 27 27 26 25 24 24 25 27 28 30 32 33 33 33 33 32 31 30 29 28 28 28 29 30 30 28 25 23 23 24 25 25 24 22 21 20 20 20 20 20 21 21 21 21 21 21 21 21 22 22 22 23 24 24 24 23 23 22 22 22 22 23 24 23 22 20 19 19 19 18 18 18 19 19 20 20 21 21 22 22
22 25 26 26 26 26 26 27 27 26 25 24 24 25 27 28 30 32 33 33 33 33 32 32 31 30 30 30 31 31 30 29 27 24 22 23 24 25 25 23 21 21 21 21 21 21 21 22 21 21 21 21 21 22 22 23 23 23 23 24 24 23 23 22 22 22 23 23 23 22 21 19 19 18 18 18 17 17 18 19 20 20 21 22 23 23 24
21 23 24 24 24 25 26 27 27 26 24 23 23 23 25 27 30 32 33 33 33 33 32 32 31 30 30 31 31 30 28 27 25 23 22 24 25 25 24 23 22 23 23 23 22 22 21 21 21 21 21 21 22 22 23 23 23 23 22 22 22 21 21 22 23 23 23 22 21 20 19 18 18 18 17 17 16 17 18 19 20 21 23 24 25 25 25
22 23 24 23 23 23 24 25 25 24 24 23 22 22 23 25 28 31 33 33 33 33 32 32 30 28 29 31 30 27 25 24 23 23 24 24 24 24 24 24 24 24 24 23 22 21 21 21 21 21 21 21 21 22 22 22 21 21 21 21 20 21 22 23 23 23 22 20 19 18 18 18 17 17 16 16 16 18 19 20 21 22 24 25 25 25 25
20 21 22 22 22 22 23 24 24 23 23 22 22 20 20 22 25 28 31 33 33 32 32 32 30 28 29 31 30 26 23 21 22 23 24 24 24 25 25 25 25 24 24 23 22 22 22 22 21 21 21 21 20 20 19 19 19 19 20 20 21 22 23 23 23 21 19 18 18 18 18 17 16 15 15 16 17 18 19 21 22 24 25 25 25 25 24
17 19 20 21 22 22 23 23 22 22 22 21 21 20 18 18 20 23 28 31 31 30 30 30 30 29 30 30 29 27 24 22 22 22 23 24 26 26 26 26 26 25 25 24 24 23 23 22 22 22 21 20 20 19 18 19 19 20 20 21 22 23 23 22 21 19 18 18 18 18 17 16 15 15 16 17 18 19 21 22 24 25 25 25 25 25 25
14 14 16 18 19 20 21 21 21 21 21 21 21 20 18 17 17 19 23 27 28 27 27 28 30 31 31 29 29 29 27 25 24 25 26 27 29 28 27 26 27 29 29 28 26 24 24 23 22 22 21 21 20 20 20 21 21 21 22 22 23 23 22 20 19 18 18 18 18 18 17 16 15 16 16 17 19 20 22 23 25 25 25 25 25 25 25
12 12 12 14 16 18 19 20 20 20 20 19 20 20 19 19 19 20 22 24 26 27 26 26 28 29 28 28 29 29 28 26 26 26 27 28 29 27 25 25 26 28 28 26 22 21 21 21 21 22 22 21 21 22 22 22 23 23 23 23 22 21 20 19 18 19 19 19 18 17 16 16 16 16 17 18 20 21 23 24 25 25 25 25 25 25 25
14 14 13 14 15 16 18 19 19 19 18 18 18 18 19 20 21 21 22 25 27 28 27 25 25 27 28 27 27 27 27 27 27 26 25 25 25 22 20 19 20 21 21 20 18 18 19 20 22 22 22 22 23 23 24 24 23 23 22 22 21 20 19 19 19 19 19 18 18 17 16 16 17 17 18 20 21 23 24 25 25 25 25 25 25 25 24
17 17 17 17 17 17 18 19 19 19 19 18 18 18 18 20 21 22 23 25 27 28 28 26 25 26 28 29 27 26 27 27 28 27 27 26 25 23 21 21 22 23 24 22 20 19 20 21 22 22 22 23 24 24 24 24 23 22 21 20 19 19 19 19 19 19 19 18 17 16 17 17 18 18 19 21 22 24 24 24 25 25 25 25 24 24 22
21 21 20 20 20 21 21 22 22 22 22 22 21 21 20 21 22 23 24 25 26 27 28 28 26 26 27 28 28 29 28 28 27 28 28 27 25 25 25 28 30 31 29 26 23 21 21 22 22 22 23 24 24 24 24 23 22 21 21 20 19 19 20 20 20 19 19 18 17 17 17 17 18 19 21 22 23 24 24 24 24 24 24 24 23 21 20
25 25 25 25 25 24 25 25 25 26 26 26 25 25 25 24 24 25 25 26 27 28 28 28 27 27 27 28 29 30 29 28 28 27 27 26 26 26 27 30 31 30 28 26 24 23 23 23 23 23 23 23 23 23 23 22 22 21 20 19 20 20 20 20 20 19 19 18 18 18 17 18 19 20 22 23 23 24 24 24 24 24 24 23 22 20 18
29 29 29 29 29 29 28 28 28 28 28 28 28 28 28 28 28 28 28 28 28 28 28 28 28 27 28 29 29 29 27 27 27 26 26 26 27 27 29 30 29 28 27 26 25 24 24 24 24 24 23 23 22 22 22 22 21 20 20 20 21 21 20 20 20 19 19 18 18 17 17 18 20 21 22 23 23 23 23 23 23 23 22 21 20 19 17
30 31 32 32 32 33 32 32 31 30 30 30 31 31 31 31 32 32 32 31 31 30 30 30 29 29 29 29 29 28 27 27 28 28 28 29 29 30 30 31 30 29 28 28 27 26 25 25 24 24 23 22 22 22 21 20 20 20 20 21 21 20 20 20 20 19 19 18 18 18 18 19 20 21 22 22 23 23 23 23 23 22 20 19 18 17 17
30 31 32 33 34 35 35 35 34 34 34 33 33 33 33 34 34 34 34 34 34 34 33 32 32 31 31 31 31 30 29 30 30 31 31 31 32 32 32 32 31 31 30 29 28 27 26 26 25 24 23 22 22 21 20 20 20 20 20 21 20 21 21 21 20 19 18 18 17 18 19 19 20 21 21 22 22 22 22 22 21 20 18 17 17 16 16
23 26 28 31 33 35 36 36 36 35 36 36 36 36 35 35 35 36 36 36 36 35 35 35 34 34 34 34 34 33 33 33 33 33 32 32 32 32 32 32 31 31 29 28 28 28 27 26 25 23 23 22 22 21 20 20 20 21 21 21 21 22 21 21 20 18 18 17 18 18 19 19 20 20 20 21 21 22 21 20 19 18 17 17 16 16 17
16 19 21 24 27 30 33 35 36 36 36 36 37 37 37 37 37 36 36 37 37 36 36 37 36 36 36 36 36 35 35 34 34 34 33 32 31 31 31 31 31 30 29 29 29 29 27 26 25 24 23 23 22 21 21 21 21 21 22 22 23 22 21 20 19 18 17 17 18 18 18 18 19 19 19 20 20 20 20 18 17 16 16 16 16 16 17
14 16 17 19 21 24 27 30 33 35 36 36 37 38 38 37 37 37 37 37 37 37 37 37 37 37 37 36 36 36 36 35 34 33 33 32 31 32 32 32 32 30 30 29 29 28 26 25 25 24 24 23 22 22 22 22 22 23 23 23 23 22 21 20 18 17 17 17 17 17 17 17 17 18 18 18 18 18 17 16 16 15 15 16 16 16 17
13 14 15 16 18 19 21 23 26 29 32 34 36 37 38 38 38 37 37 37 37 37 37 37 37 36 36 36 35 35 35 34 33 33 33 32 32 32 32 32 31 29 28 28 27 26 25 24 24 24 24 23 23 23 23 23 23 23 23 23 22 21 20 18 17 17 17 17 17 16 16 16 16 16 16 16 15 15 15 15 14 14 14 15 15 16 17
12 13 14 15 16 17 18 19 21 22 24 27 29 32 34 37 38 38 38 38 38 38 38 38 37 36 36 36 35 35 35 34 34 33 32 32 31 31 31 30 29 28 28 27 26 25 24 24 24 24 24 24 24 24 24 24 24 24 23 23 22 20 19 17 17 17 17 17 16 15 15 15 15 15 15 15 14 14 13 14 14 14 15 15 16 17 18
12 13 14 14 14 15 17 18 19 20 21 22 23 25 28 30 33 35 37 38 39 38 38 38 37 37 36 36 36 36 35 35 34 33 31 31 31 31 30 30 28 28 27 27 26 25 25 24 24 24 24 25 25 24 24 24 24 24 23 22 21 20 18 17 17 17 17 16 16 15 15 14 14 14 15 15 14 14 14 15 15 16 16 17 18 19 20
11 12 13 14 14 15 15 17 18 19 20 21 21 22 24 25 26 28 31 35 37 38 38 37 37 36 36 35 35 35 34 34 33 32 31 31 32 31 30 29 28 28 28 27 27 26 25 25 24 25 25 25 25 25 25 25 25 24 23 22 21 19 18 18 18 17 17 16 16 15 15 15 15 15 15 15 15 16 16 16 17 18 18 19 19 20 21
9 10 12 13 13 13 14 14 15 16 17 18 19 20 21 22 23 24 26 28 31 34 36 36 35 35 34 33 33 32 32 32 32 32 32 31 31 30 29 28 28 28 28 28 27 27 26 26 26 25 25 25 25 26 26 25 25 24 24 22 20 19 19 19 18 18 17 17 17 16 16 16 16 16 16 16 17 17 18 18 19 20 21 21 22 23 23
8 8 9 11 11 10 11 12 12 13 14 15 16 17 18 19 20 22 23 25 26 29 32 34 35 34 33 33 32 32 32 32 32 32 32 31 31 30 29 29 29 28 27 27 27 27 27 26 26 25 25 26 26 26 26 25 25 25 23 22 20 20 19 19 19 18 18 18 18 18 17 17 17 17 17 18 18 19 19 20 20 21 22 23 24 25 25
8 7 6 8 9 8 9 10 10 10 11 13 14 15 16 17 18 19 21 23 24 27 30 32 33 33 33 33 32 32 31 31 31 31 31 31 31 31 30 30 29 28 27 26 26 26 27 26 26 26 27 27 27 26 26 26 26 24 23 22 21 20 20 20 20 19 19 19 19 19 19 19 19 19 19 20 20 20 21 21 22 23 24 24 25 26 27
7 6 4 5 7 7 8 9 9 9 10 11 12 13 14 15 15 16 17 19 22 24 27 29 30 31 31 31 31 31 31 30 30 30 30 30 29 28 28 28 27 27 26 26 26 26 26 26 26 27 27 27 27 27 27 26 25 24 23 22 22 21 21 21 21 21 21 21 21 21 20 20 21 21 21 22 22 23 24 24 25 25 26 27 28 29 29
6 5 4 5 6 7 7 8 7 8 9 10 11 12 11 11 12 13 14 15 17 20 22 24 26 27 28 29 29 29 29 29 29 29 28 27 25 25 25 25 25 25 25 25 25 26 26 26 26 27 27 27 27 27 27 26 25 24 23 23 23 23 23 23 23 23 23 23 23 23 23 23 23 23 24 24 25 26 27 27 28 29 30 30 31 32 32
5 5 4 4 5 6 6 6 6 7 7 8 9 11 10 8 8 9 10 11 13 15 17 19 21 23 25 25 26 26 26 27 27 27 25 24 23 23 23 23 24 24 25 25 25 25 25 25 26 27 27 27 27 27 27 26 26 25 24 24 25 25 25 25 25 25 25 25 25 25 25 26 26 27 27 27 28 29 30 31 31 32 33 34 35 35 36
4 4 4 4 5 5 6 5 5 5 5 4 5 8 10 9 7 7 8 9 10 11 13 14 16 18 20 21 21 22 22 22 22 23 22 22 22 22 23 23 24 25 26 26 26 25 25 26 27 27 27 27 27 27 27 27 26 26 26 26 26 26 26 27 27 27 28 28 28 28 29 29 30 31 31 31 32 32 33 34 35 36 36 37 38 39 39
4 4 4 4 4 4 4 4 5 4 4 3 3 5 8 9 9 8 8 9 9 10 11 12 13 15 16 17 18 19 18 18 19 20 22 22 22 23 24 25 26 27 27 27 27 26 26 26 26 26 27 27 27 28 28 28 28 28 28 28 28 28 28 29 29 30 30 31 31 31 32 33 34 35 35 36 36 36 37 38 38 39 40 40 41 42 42
4 5 5 5 4 4 4 5 5 4 3 3 2 3 5 7 9 10 10 10 10 11 11 12 13 14 15 16 17 18 17 18 19 20 21 22 22 22 23 24 25 26 27 28 28 27 27 26 26 26 27 28 28 29 29 29 29 29 30 30 31 31 31 31 32 32 33 33 34 34 35 36 37 38 38 39 40 40 40 41 42 42 43 43 44 44 44
Wind_Direction
204 203 202 202 203 205 206 207 208 210 211 212 214 216 219 221 222 225 227 229 231 232 233 235 236 238 239 239 240 240 240 240 241 244 248 248 246 246 248 247 247 250 251 251 252 253 258 265 268 269 271 271 268 263 258 257 258 260 262 264 268 272 276 280 284 288 291 293 294 296 299 301 303 304 305 307 309 311 312 312 312 311 311 311 311 311 312
203 202 202 202 202 204 206 206 208 211 213 213 214 216 218 221 223 225 227 229 231 233 234 235 236 237 238 238 239 239 240 242 244 246 248 248 247 247 249 250 252 254 254 255 256 258 262 266 267 268 268 266 262 257 254 254 256 257 260 262 266 271 275 279 283 287 290 292 293 296 299 301 303 304 305 307 308 309 310 310 310 311 311 311 311 311 311
203 202 202 201 201 202 205 205 206 209 212 214 215 216 218 220 223 226 227 229 231 233 235 237 238 239 239 240 241 242 243 244 246 248 249 249 248 249 251 254 257 257 257 257 259 261 262 263 263 262 261 258 254 251 250 251 253 254 257 261 265 269 274 278 282 286 289 291 294 297 300 302 302 303 304 306 307 309 310 310 310 310 310 310 310 310 310
201 203 203 201 200 201 203 205 205 207 210 213 215 217 219 220 223 225 227 229 231 233 235 238 240 240 241 241 243 244 246 247 249 250 250 250 250 251 253 257 260 261 261 261 262 262 261 260 258 255 253 251 250 247 246 248 250 252 255 259 264 269 273 277 281 285 289 291 295 298 300 300 301 302 303 305 307 309 310 310 311 310 310 309 309 309 309
198 203 205 203 202 202 203 205 206 207 209 212 214 216 218 220 222 224 227 229 230 232 234 236 239 242 243 243 244 245 245 246 248 249 249 250 250 251 254 258 261 262 262 263 263 261 259 258 258 255 250 246 246 244 243 245 247 249 254 258 264 269 273 277 282 285 288 291 295 298 299 299 300 302 304 306 308 309 309 310 310 309 309 308 308 309 310
196 201 206 206 205 205 206 207 207 207 209 211 214 216 218 220 222 223 226 228 229 231 233 234 236 239 242 243 243 242 241 241 243 245 247 248 250 252 254 257 259 259 260 262 261 260 259 258 260 259 249 242 241 240 238 241 244 247 253 258 264 269 274 279 283 286 289 292 295 297 298 298 300 302 304 306 307 308 308 308 308 308 308 308 309 310 311
196 200 207 210 209 208 208 209 210 210 210 212 215 217 219 221 223 224 226 227 228 230 232 233 234 234 236 238 238 237 236 237 238 241 244 247 249 252 254 255 258 258 258 259 260 261 262 260 261 261 248 236 236 238 237 238 242 246 253 259 265 271 275 279 283 286 290 293 295 296 297 299 301 303 305 306 307 307 307 307 307 307 308 309 310 311 312
198 199 207 212 212 211 212 212 213 214 215 215 216 219 221 222 224 225 227 228 229 230 231 233 234 234 234 236 236 236 237 238 239 241 244 247 250 253 255 256 258 258 258 259 261 264 265 261 259 260 248 235 234 236 236 237 241 246 253 260 267 272 275 279 283 287 291 294 295 296 298 300 303 304 306 307 307 306 306 307 308 309 310 311 312 313 314
202 201 206 212 214 215 216 216 217 218 219 220 220 221 222 224 225 226 228 229 231 231 232 233 235 236 237 237 238 239 241 242 244 245 247 250 254 257 258 259 260 259 260 263 265 267 266 261 257 256 249 239 235 236 236 238 242 248 256 263 268 272 276 280 284 288 291 293 294 297 299 301 304 305 307 308 308 308 309 309 310 311 312 313 314 314 314
206 206 209 212 215 217 217 218 220 221 223 224 225 226 227 228 228 229 231 232 233 233 233 232 232 234 237 238 239 241 243 245 247 250 252 255 258 259 259 262 263 263 263 263 265 266 263 259 258 255 247 238 235 235 237 239 243 250 258 264 268 273 278 282 285 288 290 293 295 298 300 302 305 307 308 310 311 312 313 314 314 315 315 315 315 315 314
206 208 214 216 218 220 221 221 222 223 225 227 228 229 230 231 232 233 234 236 236 235 234 232 231 233 235 238 240 241 244 247 250 253 257 259 260 260 262 265 266 264 262 261 262 262 260 260 261 255 244 234 233 235 236 239 244 251 258 264 270 276 279 281 284 287 291 294 297 299 300 303 306 308 309 311 313 316 317 317 317 317 316 315 315 314 314
204 206 214 218 220 223 224 224 225 225 226 227 228 229 230 231 234 237 240 241 241 239 236 233 233 234 235 238 242 245 247 249 253 257 260 262 263 265 267 268 266 262 261 261 260 262 266 264 257 246 235 227 228 232 235 239 245 252 259 266 272 276 278 281 285 288 292 296 297 298 300 303 306 308 310 312 315 317 318 318 317 316 315 315 314 314 314
209 208 212 215 217 219 221 223 224 225 226 227 226 227 229 231 236 241 244 245 244 241 238 236 236 237 237 239 243 247 250 253 258 262 264 265 265 267 268 266 261 259 260 260 261 264 267 258 243 233 229 228 229 232 236 241 247 255 262 268 272 274 278 282 286 289 293 295 296 298 300 303 305 308 311 313 316 317 317 316 315 315 314 314 314 314 314
216 217 218 217 216 216 218 220 223 225 228 229 229 230 232 233 236 239 243 245 244 240 237 236 237 239 240 242 244 248 252 256 260 263 265 266 266 267 266 262 259 260 261 260 262 263 259 246 234 232 236 237 236 236 238 244 252 259 264 268 270 274 278 282 285 289 292 293 295 298 301 302 305 308 311 314 316 315 315 314 314 313 314 314 314 315 316
223 225 225 224 223 223 224 226 228 229 232 233 233 232 233 233 234 237 239 242 242 240 237 237 238 239 242 244 246 248 251 255 258 261 263 266 267 267 265 262 262 262 261 261 263 261 253 248 247 249 248 243 241 243 246 251 256 260 263 266 270 274 278 282 286 289 290 292 295 299 301 301 304 308 311 313 313 312 312 312 312 313 314 314 315 316 317
226 228 229 228 229 231 232 233 234 236 237 237 236 234 233 233 233 234 235 236 238 239 238 238 239 240 242 245 247 248 251 255 257 258 260 263 266 267 266 265 263 259 256 259 261 254 247 248 250 250 248 246 246 250 253 254 256 259 263 267 271 274 278 282 286 287 288 290 295 299 300 301 304 307 309 309 309 310 310 311 312 313 314 314 316 317 318
221 222 222 221 222 224 228 230 232 234 236 237 236 235 234 233 231 229 228 230 233 235 236 237 238 239 241 243 245 247 250 252 253 254 256 261 264 266 265 262 258 252 250 255 256 248 244 246 246 245 248 248 248 250 250 250 255 262 266 268 271 275 279 283 285 285 286 289 294 297 298 300 303 305 306 306 307 309 310 311 312 313 314 315 317 319 320
216 215 216 218 218 221 226 229 229 230 232 232 230 228 228 227 225 223 223 225 227 229 229 230 232 233 235 238 240 242 244 246 248 250 255 259 261 261 259 255 252 250 250 252 253 250 247 248 247 246 247 246 246 249 251 254 260 265 268 270 274 278 281 283 284 284 285 288 291 295 296 298 300 302 303 305 307 308 309 310 311 313 315 317 319 319 321
221 222 224 226 227 228 230 230 228 228 229 227 224 221 220 220 220 221 221 223 224 225 225 224 226 228 230 232 235 237 239 242 245 248 252 254 254 253 253 250 247 246 247 248 250 249 247 245 244 244 245 247 251 255 258 261 264 267 270 273 277 279 282 283 283 284 285 287 290 291 293 296 298 300 302 304 306 307 307 309 311 314 317 318 319 320 323
227 228 229 229 230 230 229 228 227 226 226 224 222 221 221 221 221 222 222 221 222 222 224 225 227 230 231 232 233 234 237 240 242 244 246 246 245 247 251 251 247 244 244 245 246 245 243 242 244 247 250 254 257 259 261 263 266 268 271 274 277 280 282 283 284 285 286 286 287 289 291 294 297 299 301 303 304 305 306 309 313 315 316 317 319 322 325
230 230 228 228 228 228 226 225 225 225 226 226 225 224 223 222 221 221 220 219 219 220 222 226 230 233 235 235 235 235 237 238 239 239 239 238 241 248 253 252 248 243 241 241 242 242 242 244 246 248 250 252 255 258 262 264 266 268 270 272 276 279 281 283 284 285 285 285 286 288 291 294 295 297 299 301 302 304 308 311 313 314 314 316 319 321 323
230 227 224 223 223 224 224 224 224 225 226 227 227 227 225 223 222 221 219 219 220 222 223 225 228 231 233 234 234 234 237 238 235 231 231 233 239 247 252 250 245 241 240 239 240 240 241 243 245 247 250 253 257 260 261 263 264 266 269 272 275 277 279 280 281 282 283 284 285 288 290 292 294 296 297 299 302 306 309 310 311 312 313 315 317 319 321
232 227 223 222 222 222 221 221 222 223 225 228 230 230 229 227 225 224 223 223 223 224 224 225 228 231 233 232 232 234 236 235 230 225 227 233 240 245 245 242 238 237 238 238 238 239 241 243 246 249 253 255 256 258 260 262 264 266 269 272 274 275 276 276 277 279 280 282 284 287 289 290 292 294 296 299 302 306 307 308 309 311 313 316 317 319 320
227 223 223 224 225 225 223 221 221 222 226 231 233 233 232 230 227 226 226 225 225 224 223 224 229 235 235 230 227 230 231 227 223 224 230 236 241 241 238 235 234 236 238 238 240 242 245 246 248 250 251 253 255 258 260 262 264 266 269 270 272 272 272 273 275 276 278 281 283 285 287 289 291 292 294 298 301 303 304 306 309 312 315 316 318 318 318
217 217 220 223 224 225 225 225 226 228 230 232 233 233 233 232 230 227 225 224 224 223 223 224 227 231 231 226 222 225 227 222 220 225 231 233 234 233 233 234 236 237 238 240 244 247 248 248 247 248 250 253 256 258 260 262 263 264 265 266 267 268 270 271 273 275 277 279 282 283 284 285 286 288 291 295 297 300 303 306 310 313 315 315 316 316 316
218 220 223 225 226 226 226 228 231 231 231 231 231 232 233 234 232 226 221 220 221 221 222 224 223 222 223 224 222 223 228 227 223 225 227 226 225 228 231 234 235 236 238 243 246 247 247 247 247 248 250 253 255 258 261 262 261 261 262 263 264 266 268 270 272 274 275 277 277 278 279 280 281 284 288 292 295 299 304 308 311 312 313 314 314 314 314
219 224 226 227 228 229 230 230 228 224 223 225 227 227 227 227 223 215 211 213 215 215 216 219 217 214 216 219 218 218 222 225 223 222 222 222 224 227 229 230 233 237 241 244 246 248 248 248 247 247 249 252 256 259 261 261 261 261 262 263 264 266 268 270 271 272 272 272 272 274 275 276 279 282 286 291 295 301 306 308 310 311 312 313 313 313 313
211 216 218 218 220 223 224 223 220 217 218 221 223 221 217 214 208 200 198 201 206 208 210 212 213 213 214 215 215 216 219 222 223 225 227 228 229 230 231 233 238 242 244 245 245 246 245 245 245 246 250 253 256 258 259 259 260 261 262 263 264 266 267 268 268 267 267 268 271 272 273 274 277 281 285 291 297 301 305 307 309 311 311 312 312 312 312
197 196 196 198 203 209 210 209 208 210 213 216 217 215 212 208 202 196 193 196 200 203 205 208 211 213 213 212 212 214 217 220 224 227 230 230 229 229 234 239 241 241 240 238 236 235 236 239 243 247 250 252 253 254 255 256 258 259 261 262 263 263 263 263 263 263 265 267 269 270 270 271 275 280 285 291 297 301 305 307 309 310 311 311 312 312 313
202 198 195 194 196 200 202 201 201 203 205 209 212 213 210 208 205 202 199 200 202 203 204 208 212 214 213 212 213 215 218 222 225 226 227 227 226 228 234 237 235 235 234 233 234 238 241 244 247 249 250 250 250 251 253 254 256 257 259 259 259 259 258 258 259 260 262 264 264 265 266 268 273 280 287 293 298 303 305 307 308 310 311 312 313 314 314
211 210 209 206 203 203 204 205 207 209 210 211 212 213 213 212 211 210 208 207 207 208 210 213 214 212 211 212 215 219 222 225 228 229 230 231 233 234 230 225 228 238 245 249 252 255 254 251 251 251 250 249 249 250 252 253 255 255 255 255 255 255 255 256 257 259 259 259 259 260 262 267 275 284 291 297 301 304 306 307 308 310 311 313 314 314 313
219 219 218 217 215 213 212 212 213 216 217 216 216 216 216 215 215 216 215 214 214 215 216 218 218 216 213 214 217 221 224 227 229 232 235 236 238 237 232 229 233 243 251 256 259 259 257 255 254 251 248 248 249 251 252 253 253 252 252 252 252 252 253 254 255 255 255 255 256 258 263 272 281 289 295 299 302 304 305 307 308 310 312 312 313 312 311
228 227 226 225 223 222 221 220 219 218 219 219 219 218 218 218 218 218 219 219 220 220 221 223 223 223 221 221 223 226 228 229 231 233 236 237 238 238 237 237 240 245 251 255 257 257 255 253 250 247 246 248 250 251 251 250 249 249 248 248 248 249 250 250 251 251 251 252 255 260 268 278 287 293 297 300 302 304 306 308 309 310 311 311 311 311 310
234 233 233 232 231 229 228 227 226 225 224 223 222 221 220 221 221 221 222 222 222 223 224 225 226 226 226 227 228 229 230 231 233 234 235 236 237 238 241 243 244 247 251 254 255 255 252 249 246 246 246 247 247 246 245 245 245 243 243 243 245 246 247 247 247 247 249 252 258 265 275 283 290 295 298 300 303 305 307 309 309 310 310 311 312 312 312
238 237 236 236 236 235 233 231 231 231 230 229 227 226 224 222 222 223 224 224 225 225 226 225 226 227 228 230 231 231 231 233 234 234 235 236 237 238 241 245 247 249 251 253 253 252 250 247 245 246 245 244 242 242 241 241 240 239 240 242 244 245 244 244 245 246 249 254 262 272 280 287 292 295 298 300 303 306 307 308 309 311 313 314 314 313 313
244 242 240 239 239 239 238 235 233 232 232 232 232 231 229 227 226 225 225 225 225 227 228 228 228 229 230 232 234 234 234 235 236 235 236 238 239 240 242 244 246 248 249 249 249 248 247 245 244 244 244 242 241 239 238 237 238 239 241 242 242 240 240 241 243 245 250 258 267 276 284 289 292 296 299 301 304 306 308 309 311 313 315 315 314 312 311
250 247 245 243 242 241 241 240 238 236 234 233 233 232 232 231 229 229 229 228 227 228 229 229 229 230 232 233 234 234 235 236 237 237 237 239 241 243 244 245 246 246 245 244 243 242 242 242 242 241 240 240 238 236 235 235 236 238 240 238 237 236 237 238 241 246 254 263 272 279 285 289 293 297 300 303 306 308 310 311 313 314 315 314 313 312 312
253 251 248 246 244 242 242 242 242 240 238 236 235 234 233 232 231 231 231 231 231 231 231 231 230 230 231 233 234 234 235 236 238 240 240 240 241 242 243 243 243 242 240 239 239 239 240 240 239 238 237 236 234 232 232 234 236 238 236 234 234 235 236 237 241 249 259 268 275 281 286 291 296 300 303 306 308 310 311 311 313 314 313 313 313 314 316
251 251 250 249 248 246 244 243 242 241 240 238 237 236 236 235 234 233 232 232 233 233 233 233 233 233 233 234 235 236 236 236 237 240 241 241 241 241 241 241 240 240 240 240 241 242 241 239 237 235 234 232 229 228 230 233 235 235 233 232 232 234 235 238 244 253 262 270 276 282 287 293 297 301 305 308 310 309 310 311 312 312 313 313 314 316 318
253 253 253 252 251 251 250 248 247 245 243 241 239 238 237 236 236 235 234 234 233 233 233 234 235 235 235 235 236 236 237 236 236 237 238 239 238 238 238 239 240 240 239 240 242 242 241 238 236 235 233 230 226 226 229 231 231 230 230 230 231 233 236 242 250 258 265 271 276 281 287 292 297 302 306 309 310 310 311 312 313 313 313 314 315 317 319
256 255 253 252 250 249 250 252 252 251 249 246 244 242 240 238 237 236 236 236 235 234 233 233 233 233 234 234 234 234 235 234 234 233 234 234 235 235 236 236 236 236 236 236 237 238 238 236 235 234 231 227 226 227 228 228 227 227 227 228 230 233 238 245 253 259 264 269 274 279 285 291 297 302 306 308 310 313 314 315 315 315 315 315 316 317 318
257 255 253 250 248 246 247 248 250 250 249 247 246 244 242 240 239 238 236 236 236 235 235 233 232 231 232 232 232 233 232 232 232 231 230 230 231 231 232 232 231 231 232 232 233 233 233 232 231 230 228 227 227 228 226 224 224 224 225 227 229 234 240 246 252 257 262 267 272 278 284 290 296 300 304 307 310 313 313 313 312 313 313 314 314 315 316
264 261 257 252 248 246 246 246 247 248 247 245 244 244 243 241 240 238 236 236 235 235 235 235 234 232 231 231 232 233 232 232 232 230 229 229 230 230 230 230 230 230 229 229 229 229 228 226 224 224 226 227 228 227 224 222 222 222 224 226 230 236 242 248 252 256 261 266 270 276 282 288 293 296 300 304 306 308 309 308 309 309 310 311 312 312 313
275 271 264 254 248 246 246 246 246 246 245 245 245 245 245 244 242 239 237 236 235 234 233 233 233 232 231 230 231 231 232 231 230 229 229 229 229 230 229 229 229 229 229 229 227 226 223 220 219 221 225 226 226 224 221 220 221 222 225 228 233 239 245 250 254 257 261 265 269 274 279 284 288 291 295 298 301 303 304 305 306 307 308 309 310 310 311
293 289 270 252 244 244 247 248 246 245 246 248 248 248 248 248 246 243 239 236 234 231 230 229 229 229 229 228 228 228 228 228 228 228 227 227 227 226 226 226 226 226 227 226 225 223 221 218 218 220 222 222 221 220 220 220 222 224 227 230 236 242 247 251 254 257 260 264 268 273 278 281 285 289 292 295 297 299 300 302 304 305 306 307 308 309 310
307 309 278 244 236 241 246 247 246 246 248 251 252 250 249 249 247 244 240 235 231 228 226 226 225 225 226 226 226 225 226 226 226 226 226 226 225 225 225 224 224 223 222 221 220 221 220 219 219 220 219 217 216 217 219 221 223 225 229 233 238 243 248 251 253 256 260 264 269 273 276 280 284 287 290 293 295 297 299 301 303 304 306 307 308 308 309
308 319 284 238 233 243 248 248 248 251 255 256 254 249 247 246 245 242 237 232 227 224 223 222 222 222 223 225 224 224 223 224 224 224 226 227 228 228 228 226 224 223 220 217 216 217 219 220 220 219 217 214 214 216 219 222 225 228 231 236 240 245 248 251 253 256 260 265 269 272 276 279 282 285 288 290 292 295 297 299 301 303 304 305 306 307 307
298 310 282 245 239 247 251 252 258 266 268 261 251 245 245 247 245 238 230 223 220 219 218 217 218 219 220 222 223 222 222 222 222 222 223 224 225 225 226 224 222 220 218 216 214 216 219 221 221 219 216 214 215 218 220 223 226 230 235 239 243 247 249 251 253 257 261 265 268 272 275 277 280 282 285 287 290 292 294 297 299 300 301 302 303 305 305
284 301 288 258 247 252 255 259 271 284 282 264 243 235 237 243 244 234 222 214 212 213 213 212 213 215 217 219 220 221 222 222 222 221 221 220 220 219 218 217 216 216 216 215 215 217 219 219 218 217 216 217 218 220 222 225 229 234 237 241 245 248 250 252 255 257 261 265 268 271 274 277 280 282 284 286 288 290 292 294 296 297 298 299 301 302 302
267 293 292 269 254 256 259 262 272 288 294 278 241 227 225 227 226 218 206 199 199 203 205 207 209 212 214 215 217 218 218 220 220 218 215 214 214 213 211 209 211 213 214 216 216 216 216 216 215 216 217 219 221 223 225 229 233 236 240 243 247 249 252 254 256 258 261 264 267 271 274 277 279 282 284 285 287 289 290 292 293 294 296 297 298 299 300
247 264 274 264 253 249 249 252 260 273 286 290 257 225 218 218 216 206 193 185 183 185 187 193 200 205 206 207 209 210 209 209 209 208 206 207 209 210 209 210 212 214 216 216 215 214 213 215 217 219 221 223 225 227 229 233 236 240 243 246 249 252 254 256 258 260 262 265 268 271 273 276 278 280 282 284 286 287 288 290 291 292 293 295 296 296 297
247 244 244 240 232 222 222 235 251 262 268 271 257 222 206 208 209 206 198 191 186 184 184 188 194 199 200 201 203 203 202 201 202 203 204 206 208 211 214 217 219 221 220 217 213 210 211 214 218 221 225 227 229 231 234 237 240 243 247 249 251 254 256 258 260 262 264 267 269 272 274 276 278 280 282 283 285 286 287 288 290 291 292 293 294 295 296
Height
5652 5655 5659 5663 5667 5670 5674 5678 5681 5683 5686 5689 5692 5695 5698 5701 5704 5707 5710 5712 5716 5719 5722 5725 5728 5731 5733 5736 5738 5740 5742 5744 5746 5748 5750 5752 5754 5755 5757 5758 5759 5760 5761 5763 5764 5764 5765 5765 5766 5766 5767 5768 5768 5769 5769 5770 5770 5771 5772 5773 5773 5773 5772 5772 5772 5772 5772 5772 5771 5770 5769 5768 5766 5765 5763 5762 5760 5759 5758 5756 5755 5754 5752 5751 5749 5748 5746
5649 5653 5657 5660 5665 5668 5672 5675 5678 5681 5684 5687 5690 5693 5696 5698 5701 5704 5707 5710 5713 5716 5719 5722 5725 5728 5730 5733 5735 5737 5739 5741 5743 5745 5747 5749 5751 5752 5754 5755 5756 5757 5759 5760 5761 5762 5762 5762 5762 5763 5763 5764 5765 5765 5766 5767 5768 5769 5769 5769 5769 5769 5769 5769 5769 5770 5770 5769 5768 5767 5766 5764 5763 5761 5760 5759 5757 5756 5755 5753 5752 5751 5749 5748 5747 5745 5743
5648 5651 5655 5659 5663 5666 5670 5673 5676 5679 5682 5685 5688 5690 5693 5696 5699 5702 5705 5708 5711 5714 5716 5719 5721 5724 5727 5729 5731 5734 5736 5738 5740 5742 5744 5746 5747 5749 5750 5751 5752 5754 5756 5757 5758 5758 5758 5758 5758 5759 5759 5760 5761 5762 5763 5764 5765 5766 5766 5766 5766 5766 5767 5767 5767 5767 5767 5766 5765 5764 5763 5761 5760 5758 5757 5756 5754 5753 5752 5750 5749 5747 5746 5745 5743 5742 5740
5647 5650 5653 5657 5661 5664 5667 5670 5674 5677 5680 5682 5685 5688 5691 5694 5697 5699 5702 5705 5708 5711 5714 5716 5718 5721 5724 5726 5728 5730 5733 5735 5737 5739 5741 5743 5744 5745 5746 5748 5749 5751 5752 5753 5754 5754 5754 5754 5753 5754 5755 5756 5757 5758 5759 5761 5762 5762 5763 5763 5763 5764 5764 5764 5764 5764 5764 5763 5762 5761 5760 5758 5757 5755 5754 5752 5751 5749 5748 5747 5745 5744 5743 5741 5740 5739 5737
5645 5649 5652 5655 5658 5661 5664 5667 5671 5674 5678 5680 5683 5686 5688 5691 5694 5697 5700 5703 5706 5708 5711 5713 5716 5718 5721 5724 5726 5728 5730 5732 5734 5736 5737 5739 5740 5742 5743 5745 5747 5748 5749 5749 5749 5750 5750 5750 5750 5750 5751 5751 5753 5754 5756 5758 5758 5759 5760 5760 5760 5761 5761 5761 5762 5762 5761 5760 5759 5758 5757 5755 5754 5752 5751 5749 5747 5746 5745 5743 5742 5741 5739 5738 5736 5735 5734
5644 5647 5650 5652 5655 5659 5662 5665 5668 5672 5675 5678 5680 5683 5685 5688 5691 5694 5696 5699 5702 5705 5708 5711 5714 5716 5719 5721 5723 5725 5727 5728 5730 5732 5734 5736 5737 5739 5740 5742 5744 5745 5745 5745 5745 5746 5746 5746 5746 5747 5747 5747 5749 5750 5752 5754 5755 5756 5756 5757 5757 5758 5758 5759 5759 5759 5758 5757 5756 5755 5753 5752 5750 5749 5747 5745 5744 5743 5741 5740 5738 5737 5736 5735 5733 5732 5730
5643 5646 5648 5650 5653 5657 5660 5663 5666 5669 5672 5675 5678 5680 5683 5686 5688 5691 5694 5696 5699 5702 5705 5707 5710 5713 5716 5717 5719 5721 5723 5725 5727 5729 5731 5733 5735 5736 5738 5739 5741 5741 5742 5742 5742 5742 5742 5742 5742 5743 5743 5743 5745 5747 5748 5750 5751 5752 5753 5754 5754 5755 5755 5756 5756 5755 5755 5754 5752 5751 5750 5748 5747 5745 5743 5742 5741 5739 5738 5737 5735 5734 5733 5731 5730 5729 5727
5641 5644 5646 5648 5652 5655 5658 5661 5664 5667 5670 5673 5676 5679 5681 5683 5686 5689 5691 5694 5696 5699 5702 5704 5707 5710 5712 5715 5716 5718 5720 5722 5724 5726 5729 5730 5732 5733 5735 5736 5737 5738 5738 5738 5738 5738 5738 5738 5738 5739 5740 5740 5742 5743 5745 5746 5748 5749 5750 5751 5751 5752 5752 5753 5753 5752 5751 5750 5749 5747 5746 5745 5743 5742 5740 5739 5737 5736 5735 5733 5732 5731 5730 5728 5727 5726 5724
5639 5642 5645 5648 5651 5654 5657 5660 5663 5665 5668 5671 5673 5676 5678 5680 5683 5686 5688 5691 5694 5697 5699 5702 5704 5707 5709 5711 5713 5715 5717 5720 5722 5724 5726 5727 5729 5731 5732 5733 5733 5734 5734 5735 5735 5735 5735 5735 5735 5736 5736 5737 5738 5740 5741 5743 5745 5746 5747 5748 5748 5749 5749 5749 5749 5749 5748 5747 5745 5744 5743 5741 5740 5738 5737 5736 5734 5733 5732 5730 5729 5728 5727 5726 5724 5723 5721
5639 5642 5644 5646 5649 5652 5655 5659 5662 5664 5667 5669 5671 5673 5676 5678 5681 5683 5686 5688 5691 5694 5696 5699 5701 5703 5705 5707 5710 5712 5715 5717 5719 5721 5722 5724 5726 5727 5728 5729 5730 5730 5731 5731 5732 5732 5732 5731 5732 5732 5732 5733 5735 5736 5738 5740 5742 5743 5744 5745 5745 5746 5746 5746 5746 5745 5744 5743 5742 5741 5739 5738 5737 5735 5734 5733 5732 5730 5729 5727 5726 5725 5724 5723 5722 5720 5718
5637 5641 5642 5644 5647 5651 5654 5657 5659 5662 5664 5666 5668 5671 5673 5675 5678 5681 5683 5685 5688 5690 5693 5696 5698 5700 5702 5705 5707 5709 5712 5714 5716 5717 5719 5721 5722 5723 5724 5725 5726 5726 5727 5728 5728 5728 5729 5728 5729 5729 5729 5730 5731 5733 5735 5737 5739 5740 5741 5742 5742 5743 5743 5743 5742 5741 5740 5739 5738 5737 5736 5735 5734 5733 5731 5730 5729 5727 5726 5725 5724 5722 5721 5720 5718 5717 5715
5635 5638 5641 5643 5646 5650 5652 5655 5657 5659 5661 5663 5665 5667 5670 5673 5676 5678 5680 5683 5685 5687 5690 5692 5695 5697 5700 5703 5704 5706 5708 5710 5712 5713 5715 5716 5718 5719 5720 5721 5722 5722 5723 5723 5723 5724 5725 5725 5724 5724 5726 5727 5729 5730 5732 5734 5735 5736 5737 5738 5739 5739 5739 5739 5738 5738 5737 5736 5735 5734 5733 5732 5731 5730 5729 5727 5726 5724 5723 5722 5721 5719 5718 5717 5715 5713 5712
5633 5636 5638 5641 5644 5647 5649 5652 5654 5656 5658 5660 5662 5666 5669 5672 5674 5676 5677 5679 5681 5684 5686 5689 5692 5695 5697 5700 5701 5702 5704 5706 5707 5709 5710 5712 5714 5715 5717 5717 5718 5718 5718 5719 5719 5720 5721 5721 5719 5720 5723 5725 5727 5728 5729 5731 5732 5733 5734 5735 5735 5736 5736 5735 5735 5734 5734 5733 5732 5731 5730 5729 5728 5727 5726 5724 5723 5722 5720 5719 5718 5716 5715 5713 5712 5710 5708
5631 5634 5636 5639 5641 5645 5647 5650 5652 5654 5656 5658 5661 5665 5667 5669 5671 5673 5674 5676 5678 5680 5683 5686 5689 5691 5694 5695 5697 5699 5700 5702 5704 5705 5707 5708 5710 5712 5713 5714 5714 5714 5714 5715 5716 5717 5717 5717 5717 5718 5721 5723 5724 5725 5726 5728 5729 5730 5731 5731 5732 5732 5732 5732 5731 5731 5730 5730 5729 5728 5727 5726 5725 5724 5723 5721 5720 5719 5717 5716 5715 5713 5712 5710 5708 5707 5705
5630 5632 5634 5637 5641 5644 5647 5648 5650 5652 5654 5656 5659 5662 5664 5666 5668 5670 5671 5673 5674 5677 5679 5682 5685 5688 5690 5691 5693 5695 5697 5699 5701 5702 5703 5705 5706 5707 5709 5710 5710 5710 5710 5711 5713 5714 5715 5715 5716 5717 5719 5720 5721 5722 5723 5724 5725 5727 5727 5728 5728 5729 5728 5728 5728 5728 5727 5727 5726 5725 5724 5723 5722 5721 5720 5719 5717 5716 5714 5713 5712 5710 5709 5707 5706 5704 5702
5629 5632 5634 5638 5641 5644 5645 5646 5648 5650 5651 5653 5655 5658 5660 5662 5665 5666 5668 5670 5672 5673 5676 5678 5681 5684 5686 5687 5689 5691 5693 5695 5697 5699 5700 5701 5702 5704 5705 5706 5706 5706 5707 5708 5709 5710 5712 5714 5715 5715 5716 5718 5718 5719 5719 5721 5722 5723 5724 5725 5725 5725 5725 5725 5725 5724 5724 5724 5723 5722 5721 5720 5719 5718 5717 5716 5714 5713 5711 5710 5709 5708 5706 5705 5703 5702 5700
5629 5631 5634 5637 5639 5641 5642 5643 5645 5646 5647 5648 5650 5653 5656 5658 5661 5663 5666 5668 5669 5671 5673 5675 5678 5680 5682 5683 5685 5687 5689 5691 5693 5695 5696 5697 5699 5700 5701 5701 5702 5703 5704 5706 5707 5708 5709 5711 5712 5713 5714 5715 5716 5716 5717 5718 5719 5720 5721 5721 5721 5722 5722 5722 5721 5721 5721 5721 5720 5719 5718 5717 5716 5715 5714 5713 5711 5710 5709 5708 5706 5705 5704 5702 5701 5699 5698
5627 5630 5632 5634 5636 5638 5639 5640 5641 5642 5643 5644 5646 5648 5652 5654 5657 5660 5663 5665 5667 5669 5670 5672 5674 5675 5677 5679 5681 5683 5685 5687 5689 5690 5692 5693 5695 5696 5697 5698 5699 5700 5702 5703 5704 5705 5707 5708 5709 5711 5712 5712 5713 5714 5715 5716 5716 5717 5718 5718 5718 5719 5719 5719 5718 5718 5718 5717 5717 5716 5715 5714 5713 5712 5711 5709 5708 5707 5706 5705 5704 5703 5701 5700 5698 5697 5696
5625 5628 5630 5632 5633 5635 5636 5637 5638 5639 5640 5642 5643 5646 5648 5651 5654 5657 5659 5662 5664 5666 5668 5669 5671 5672 5674 5676 5678 5680 5682 5684 5685 5687 5688 5690 5691 5693 5694 5695 5696 5697 5699 5700 5701 5703 5704 5705 5706 5708 5709 5709 5710 5711 5712 5713 5713 5714 5715 5715 5715 5715 5715 5715 5715 5715 5714 5714 5713 5712 5712 5711 5710 5709 5708 5706 5705 5704 5703 5702 5701 5700 5699 5698 5696 5695 5693
5623 5625 5627 5629 5630 5631 5633 5634 5635 5637 5638 5640 5642 5644 5646 5648 5651 5654 5656 5659 5661 5663 5665 5667 5668 5670 5672 5673 5675 5677 5679 5680 5681 5683 5684 5686 5688 5689 5691 5692 5693 5694 5696 5697 5698 5700 5701 5702 5703 5704 5705 5706 5707 5708 5709 5710 5711 5711 5712 5712 5712 5712 5712 5712 5712 5711 5711 5710 5710 5709 5709 5708 5707 5706 5705 5704 5703 5702 5701 5700 5699 5698 5697 5695 5694 5693 5691
5620 5622 5624 5625 5626 5628 5629 5631 5632 5634 5636 5638 5639 5641 5643 5645 5647 5650 5653 5656 5658 5660 5662 5664 5666 5668 5669 5671 5673 5674 5675 5676 5678 5679 5681 5683 5685 5686 5688 5689 5690 5691 5693 5694 5695 5697 5698 5699 5700 5701 5702 5703 5705 5706 5706 5707 5708 5708 5709 5709 5709 5709 5709 5709 5709 5708 5708 5707 5707 5706 5705 5704 5704 5703 5702 5701 5700 5699 5698 5698 5697 5696 5695 5693 5692 5691 5690
5617 5618 5619 5620 5622 5624 5625 5627 5629 5631 5633 5635 5637 5639 5640 5642 5644 5647 5649 5652 5654 5656 5658 5660 5662 5664 5666 5668 5670 5671 5672 5673 5674 5676 5678 5680 5682 5684 5685 5686 5687 5689 5690 5692 5693 5694 5695 5696 5698 5699 5700 5701 5702 5703 5704 5704 5705 5705 5705 5705 5705 5706 5706 5706 5706 5705 5705 5704 5704 5703 5702 5701 5701 5700 5699 5699 5698 5697 5696 5695 5695 5694 5693 5691 5690 5689 5687
5614 5615 5616 5618 5620 5621 5623 5625 5626 5628 5631 5632 5634 5636 5638 5639 5641 5643 5646 5648 5651 5653 5655 5657 5659 5661 5663 5664 5666 5667 5669 5670 5671 5673 5675 5677 5679 5681 5683 5684 5685 5686 5688 5689 5690 5691 5693 5694 5695 5697 5698 5699 5699 5700 5700 5701 5701 5702 5702 5702 5702 5702 5702 5702 5702 5702 5702 5701 5701 5700 5699 5699 5698 5697 5697 5696 5696 5695 5694 5693 5693 5692 5690 5689 5687 5686 5685
5611 5613 5614 5616 5618 5619 5621 5622 5624 5626 5628 5630 5632 5633 5635 5636 5638 5640 5642 5645 5647 5649 5652 5654 5656 5658 5659 5661 5662 5664 5665 5667 5669 5671 5673 5675 5677 5679 5680 5681 5683 5684 5685 5686 5687 5689 5690 5692 5693 5694 5695 5695 5696 5697 5697 5698 5698 5699 5699 5699 5699 5699 5699 5699 5699 5699 5699 5698 5698 5697 5697 5696 5695 5695 5694 5694 5694 5693 5693 5692 5690 5689 5688 5686 5685 5683 5682
5609 5610 5612 5614 5616 5617 5619 5621 5623 5625 5627 5628 5629 5630 5631 5633 5634 5636 5638 5641 5643 5646 5648 5650 5652 5655 5656 5657 5659 5661 5663 5664 5666 5668 5670 5672 5675 5676 5678 5679 5680 5681 5682 5684 5685 5687 5688 5689 5690 5691 5692 5692 5693 5694 5694 5695 5695 5695 5696 5696 5696 5696 5696 5696 5696 5696 5695 5695 5695 5695 5694 5694 5693 5692 5692 5692 5692 5691 5691 5690 5688 5687 5686 5684 5683 5681 5680
5608 5609 5611 5612 5614 5615 5617 5619 5621 5623 5624 5625 5626 5627 5628 5629 5630 5632 5634 5637 5640 5643 5645 5647 5649 5652 5653 5655 5657 5659 5660 5662 5664 5666 5668 5670 5672 5674 5675 5676 5677 5678 5680 5681 5683 5684 5685 5686 5687 5688 5689 5689 5690 5690 5691 5691 5692 5692 5692 5693 5693 5693 5693 5693 5693 5693 5692 5692 5692 5692 5692 5691 5691 5690 5690 5690 5689 5689 5688 5687 5686 5685 5684 5682 5680 5679 5678
5607 5608 5609 5610 5612 5614 5615 5617 5618 5620 5622 5623 5624 5625 5626 5627 5627 5629 5631 5634 5637 5640 5642 5644 5646 5649 5651 5652 5655 5657 5659 5660 5662 5664 5666 5668 5669 5670 5672 5674 5675 5676 5677 5678 5680 5681 5682 5683 5684 5685 5685 5686 5687 5687 5688 5688 5688 5689 5689 5690 5690 5690 5690 5690 5690 5690 5690 5690 5690 5690 5689 5689 5689 5688 5688 5688 5687 5686 5686 5685 5684 5683 5681 5680 5678 5677 5675
5605 5606 5607 5608 5609 5611 5613 5614 5616 5618 5619 5621 5622 5623 5624 5625 5626 5627 5629 5632 5635 5638 5640 5642 5644 5646 5648 5650 5653 5654 5656 5659 5661 5662 5663 5665 5666 5668 5669 5671 5672 5673 5673 5675 5676 5678 5679 5680 5681 5682 5682 5683 5684 5684 5685 5685 5685 5686 5686 5687 5687 5687 5687 5687 5687 5687 5687 5687 5687 5687 5687 5687 5687 5686 5686 5686 5685 5684 5684 5683 5682 5680 5679 5678 5676 5674 5673
5604 5605 5605 5606 5608 5609 5611 5612 5614 5616 5618 5619 5620 5621 5623 5624 5625 5626 5628 5630 5633 5635 5638 5640 5642 5644 5646 5649 5650 5652 5654 5657 5659 5660 5660 5662 5664 5665 5667 5668 5668 5669 5670 5671 5673 5675 5676 5677 5678 5679 5680 5680 5681 5681 5682 5682 5682 5683 5683 5684 5684 5684 5684 5684 5684 5684 5684 5684 5684 5684 5684 5684 5684 5684 5684 5684 5683 5682 5681 5680 5679 5678 5676 5675 5673 5672 5670
5603 5604 5605 5606 5607 5608 5610 5611 5613 5614 5616 5617 5619 5620 5621 5623 5624 5626 5628 5629 5631 5633 5636 5638 5640 5642 5645 5647 5649 5651 5653 5654 5655 5657 5658 5659 5661 5662 5664 5665 5666 5666 5667 5669 5670 5672 5673 5674 5675 5676 5676 5677 5678 5678 5678 5679 5679 5680 5680 5680 5681 5681 5681 5681 5681 5681 5681 5681 5682 5682 5682 5682 5682 5682 5682 5682 5681 5680 5679 5678 5676 5675 5673 5672 5670 5669 5667
5603 5603 5604 5605 5606 5607 5609 5610 5612 5613 5615 5616 5617 5619 5620 5622 5623 5625 5627 5628 5630 5632 5634 5636 5638 5640 5642 5644 5646 5648 5650 5651 5653 5654 5656 5657 5658 5660 5662 5663 5663 5663 5664 5666 5667 5669 5670 5670 5671 5672 5673 5674 5674 5675 5675 5676 5676 5677 5677 5677 5678 5678 5678 5678 5679 5679 5679 5679 5680 5680 5680 5680 5680 5680 5679 5679 5679 5678 5677 5675 5674 5672 5671 5669 5668 5666 5665
5601 5602 5603 5604 5605 5606 5607 5609 5610 5612 5613 5614 5616 5617 5618 5620 5621 5623 5624 5626 5628 5630 5632 5633 5635 5637 5640 5642 5644 5645 5647 5648 5650 5651 5653 5654 5655 5657 5658 5659 5659 5660 5661 5663 5664 5665 5666 5667 5668 5669 5669 5670 5671 5671 5672 5672 5673 5673 5674 5674 5675 5675 5675 5676 5676 5676 5677 5677 5678 5678 5678 5678 5677 5677 5677 5677 5676 5675 5674 5673 5671 5670 5668 5667 5665 5664 5663
5599 5600 5601 5602 5603 5604 5605 5607 5608 5609 5610 5612 5613 5615 5616 5618 5619 5621 5622 5624 5626 5627 5629 5631 5633 5635 5637 5639 5640 5642 5643 5646 5647 5649 5650 5651 5653 5653 5654 5655 5656 5657 5659 5660 5661 5662 5663 5663 5664 5665 5666 5667 5667 5668 5669 5669 5670 5670 5671 5672 5672 5673 5673 5673 5674 5674 5674 5675 5675 5676 5676 5675 5675 5675 5674 5674 5673 5672 5671 5670 5668 5667 5665 5664 5663 5662 5661
5596 5597 5598 5599 5600 5601 5603 5604 5606 5607 5608 5609 5611 5612 5614 5615 5617 5618 5620 5622 5623 5625 5626 5628 5630 5632 5634 5635 5637 5639 5641 5643 5644 5646 5647 5648 5649 5650 5650 5651 5652 5654 5656 5657 5658 5659 5659 5660 5661 5661 5662 5663 5664 5665 5666 5666 5667 5668 5669 5669 5669 5670 5670 5671 5671 5672 5672 5673 5673 5673 5673 5673 5673 5672 5672 5671 5670 5669 5668 5667 5665 5664 5663 5661 5660 5659 5659
5593 5593 5594 5595 5597 5598 5599 5601 5602 5604 5605 5606 5608 5609 5610 5612 5613 5615 5616 5618 5620 5622 5623 5625 5627 5629 5631 5632 5634 5636 5638 5639 5640 5642 5643 5644 5645 5646 5647 5647 5649 5651 5652 5653 5654 5655 5656 5656 5657 5658 5659 5660 5661 5662 5663 5664 5664 5665 5666 5666 5667 5667 5668 5668 5669 5670 5670 5671 5671 5671 5671 5671 5671 5670 5669 5668 5667 5666 5665 5664 5662 5661 5660 5659 5658 5657 5657
5588 5589 5590 5592 5593 5594 5595 5597 5599 5600 5601 5603 5604 5606 5607 5609 5610 5611 5613 5614 5616 5618 5620 5622 5624 5626 5627 5629 5630 5632 5634 5635 5636 5637 5638 5640 5641 5642 5644 5645 5646 5647 5648 5649 5651 5651 5652 5653 5654 5655 5656 5657 5658 5659 5660 5661 5662 5662 5663 5664 5664 5665 5665 5666 5667 5668 5668 5668 5669 5669 5669 5669 5668 5667 5666 5665 5664 5663 5662 5661 5660 5659 5658 5657 5656 5655 5655
5584 5585 5586 5587 5588 5589 5590 5592 5594 5596 5597 5599 5600 5601 5603 5605 5607 5608 5609 5611 5612 5614 5615 5617 5619 5621 5623 5624 5626 5627 5629 5630 5631 5632 5634 5636 5637 5638 5640 5641 5642 5643 5645 5646 5646 5647 5648 5649 5651 5652 5653 5654 5655 5656 5657 5658 5659 5660 5660 5661 5662 5662 5663 5664 5665 5665 5666 5666 5666 5666 5666 5666 5665 5665 5664 5662 5661 5660 5659 5658 5657 5656 5655 5655 5654 5653 5653
5581 5581 5582 5583 5584 5584 5586 5587 5589 5591 5593 5594 5596 5597 5598 5600 5602 5604 5606 5607 5609 5610 5612 5613 5615 5617 5618 5620 5621 5623 5624 5626 5627 5628 5630 5632 5634 5635 5636 5637 5638 5639 5640 5641 5642 5643 5645 5646 5648 5649 5650 5651 5652 5653 5654 5655 5656 5657 5658 5659 5659 5660 5661 5662 5663 5663 5664 5664 5664 5664 5664 5663 5663 5662 5661 5660 5659 5658 5657 5656 5655 5654 5653 5653 5652 5651 5650
5579 5579 5579 5579 5580 5580 5581 5582 5583 5585 5587 5589 5591 5592 5594 5596 5598 5599 5601 5603 5605 5606 5608 5609 5611 5613 5614 5616 5617 5618 5620 5622 5623 5625 5626 5628 5630 5630 5631 5633 5634 5635 5637 5638 5639 5640 5642 5643 5645 5646 5647 5648 5649 5651 5652 5653 5653 5654 5655 5656 5657 5658 5659 5660 5661 5661 5661 5661 5661 5661 5661 5661 5660 5659 5658 5657 5656 5655 5655 5654 5653 5652 5652 5651 5650 5649 5648
5577 5577 5577 5577 5577 5578 5578 5579 5579 5580 5582 5583 5585 5587 5589 5591 5593 5594 5596 5598 5600 5602 5603 5605 5607 5609 5610 5612 5613 5614 5616 5618 5620 5621 5622 5624 5625 5626 5627 5629 5631 5633 5634 5635 5636 5638 5639 5640 5642 5643 5644 5645 5646 5648 5649 5650 5651 5652 5653 5654 5655 5656 5657 5658 5658 5659 5659 5659 5659 5659 5659 5658 5658 5657 5656 5656 5655 5654 5653 5652 5651 5650 5650 5649 5648 5647 5646
5575 5575 5575 5575 5575 5575 5576 5576 5577 5577 5578 5579 5580 5582 5583 5585 5587 5589 5591 5593 5595 5597 5599 5601 5602 5604 5606 5607 5609 5610 5611 5613 5615 5617 5618 5620 5621 5623 5624 5626 5628 5629 5630 5631 5633 5635 5636 5638 5639 5640 5641 5643 5644 5645 5646 5647 5648 5650 5651 5652 5653 5654 5655 5655 5656 5656 5656 5657 5657 5657 5657 5656 5656 5655 5654 5654 5653 5652 5651 5650 5649 5649 5648 5647 5646 5645 5644
5573 5573 5573 5573 5573 5573 5574 5574 5574 5575 5575 5576 5576 5577 5578 5580 5582 5584 5586 5587 5589 5591 5594 5596 5598 5600 5601 5603 5604 5606 5607 5609 5611 5613 5615 5616 5617 5619 5620 5622 5624 5625 5627 5628 5630 5632 5633 5635 5636 5637 5639 5640 5641 5642 5643 5645 5646 5647 5649 5650 5651 5651 5652 5653 5654 5654 5654 5654 5654 5654 5654 5654 5653 5653 5652 5651 5650 5650 5649 5648 5647 5647 5646 5645 5644 5643 5642
5572 5572 5572 5572 5572 5572 5572 5572 5572 5572 5573 5573 5574 5574 5575 5576 5578 5579 5580 5582 5584 5586 5589 5591 5593 5595 5597 5599 5600 5602 5604 5606 5607 5609 5611 5612 5613 5615 5617 5619 5621 5622 5624 5625 5627 5628 5630 5631 5633 5634 5636 5637 5639 5640 5641 5642 5644 5645 5646 5647 5648 5649 5650 5651 5651 5651 5652 5652 5652 5652 5651 5651 5651 5650 5649 5649 5648 5647 5647 5646 5645 5644 5643 5643 5642 5641 5640
5570 5570 5570 5570 5570 5570 5570 5570 5570 5570 5571 5571 5572 5572 5573 5573 5574 5575 5577 5578 5580 5582 5584 5586 5588 5591 5593 5595 5597 5599 5601 5603 5604 5606 5607 5609 5611 5613 5614 5616 5618 5620 5621 5623 5624 5625 5627 5628 5630 5632 5633 5635 5636 5637 5638 5640 5641 5643 5644 5645 5646 5647 5647 5648 5648 5649 5649 5649 5649 5649 5649 5648 5648 5647 5647 5646 5645 5645 5644 5644 5643 5642 5641 5640 5639 5638 5637
5569 5569 5568 5568 5568 5568 5568 5568 5569 5569 5569 5570 5570 5570 5571 5571 5572 5573 5573 5575 5576 5578 5580 5582 5584 5586 5589 5590 5592 5594 5596 5598 5600 5602 5604 5606 5607 5609 5611 5613 5614 5616 5618 5620 5621 5623 5624 5626 5627 5629 5630 5632 5633 5635 5636 5638 5639 5640 5641 5642 5643 5644 5645 5645 5645 5646 5646 5646 5646 5646 5646 5646 5645 5645 5644 5643 5643 5642 5642 5641 5640 5639 5638 5637 5636 5635 5634
5568 5567 5566 5566 5566 5567 5567 5567 5567 5568 5568 5568 5568 5568 5568 5569 5569 5570 5570 5571 5573 5574 5576 5578 5580 5582 5584 5586 5589 5591 5593 5595 5597 5599 5601 5602 5604 5606 5607 5609 5611 5613 5614 5616 5618 5620 5622 5623 5625 5626 5627 5629 5631 5632 5634 5635 5636 5638 5639 5640 5640 5641 5642 5642 5643 5643 5643 5643 5643 5643 5643 5643 5642 5642 5641 5640 5640 5639 5639 5638 5637 5636 5635 5634 5633 5632 5631
5567 5566 5566 5566 5566 5566 5566 5566 5567 5567 5567 5566 5566 5566 5566 5566 5566 5567 5567 5568 5569 5571 5573 5574 5577 5579 5581 5584 5586 5588 5590 5592 5594 5596 5598 5600 5602 5604 5605 5607 5608 5610 5612 5614 5615 5617 5619 5621 5622 5624 5625 5627 5628 5630 5631 5633 5634 5635 5636 5637 5638 5638 5639 5639 5640 5640 5640 5640 5640 5640 5640 5639 5639 5638 5638 5637 5637 5636 5635 5634 5634 5633 5632 5631 5630 5628 5627
5567 5566 5566 5565 5565 5565 5565 5565 5566 5565 5565 5565 5565 5565 5565 5565 5565 5565 5565 5566 5567 5569 5570 5572 5575 5577 5579 5581 5583 5585 5587 5589 5591 5593 5595 5597 5599 5601 5603 5604 5606 5608 5610 5611 5613 5615 5617 5618 5620 5621 5623 5624 5626 5628 5629 5630 5631 5632 5633 5634 5635 5636 5636 5636 5637 5637 5637 5637 5637 5637 5636 5636 5636 5635 5635 5634 5633 5632 5632 5631 5630 5629 5627 5626 5625 5624 5623
5566 5566 5565 5565 5565 5565 5565 5565 5565 5564 5564 5563 5563 5563 5564 5564 5564 5564 5564 5565 5566 5567 5569 5571 5573 5575 5577 5579 5581 5583 5585 5587 5589 5590 5592 5595 5596 5598 5600 5602 5604 5606 5608 5610 5611 5613 5614 5616 5618 5619 5621 5622 5624 5625 5627 5628 5629 5630 5631 5631 5632 5632 5633 5633 5633 5633 5633 5633 5633 5633 5633 5632 5632 5631 5631 5630 5629 5629 5628 5626 5625 5624 5623 5622 5621 5619 5618
5565 5565 5565 5565 5564 5564 5564 5564 5564 5564 5564 5563 5562 5562 5563 5563 5563 5564 5564 5564 5565 5567 5568 5570 5572 5574 5576 5577 5579 5581 5583 5585 5587 5589 5591 5593 5594 5596 5598 5600 5602 5604 5605 5607 5609 5610 5612 5613 5615 5617 5619 5620 5621 5623 5624 5625 5626 5627 5628 5628 5629 5629 5630 5630 5630 5630 5630 5630 5630 5629 5629 5628 5628 5627 5626 5626 5625 5624 5623 5622 5621 5620 5618 5617 5616 5614 5613
5565 5565 5565 5565 5564 5564 5564 5564 5564 5564 5564 5563 5563 5562 5562 5563 5563 5564 5564 5565 5566 5567 5568 5570 5571 5573 5575 5576 5578 5580 5581 5583 5585 5587 5589 5591 5593 5594 5596 5598 5600 5601 5603 5604 5606 5608 5609 5611 5613 5615 5616 5617 5619 5620 5621 5622 5623 5623 5624 5625 5625 5625 5626 5626 5626 5626 5626 5626 5625 5625 5625 5624 5623 5622 5622 5621 5620 5619 5618 5617 5616 5614 5613 5612 5610 5609 5608
5565 5565 5565 5564 5564 5564 5564 5564 5565 5564 5564 5564 5564 5563 5563 5563 5564 5564 5565 5565 5566 5567 5568 5570 5571 5573 5574 5575 5577 5579 5580 5582 5584 5586 5588 5589 5591 5593 5595 5597 5598 5600 5601 5602 5604 5606 5607 5609 5611 5612 5614 5615 5616 5617 5618 5618 5619 5620 5620 5621 5621 5621 5621 5621 5621 5621 5621 5621 5621 5620 5620 5619 5618 5617 5617 5616 5614 5613 5612 5611 5610 5609 5607 5606 5605 5603 5602